AAL590 KPHX-KSAN

Flight info

Callsign AAL590
Flight time 0h 58m
Altitude 28000
Route FYRBD1 MOHAK J2 HOGGZ LUCKI1
Aircraft B738/M-SDE2E3FGHIRWXY/LB1

Departure

Time 2026-04-25 15:01
Airport Phoenix Sky Harbor International Airport (KPHX)

Arrival

Time 2026-04-25 15:59
Airport San Diego International Airport (KSAN)
Time Latitude Longitude Altitude Speed Heading
2026-04-25 14:46 33.43796 -112.00118 1123 ft 0 kts 270°
2026-04-25 14:48 33.43796 -112.00113 1123 ft 3 kts 271°
2026-04-25 14:48 33.43791 -112.00086 1116 ft 4 kts 317°
2026-04-25 14:48 33.43770 -112.00075 1118 ft 3 kts 359°
2026-04-25 14:48 33.43767 -112.00075 1117 ft 1 kts 360°
2026-04-25 14:53 33.43802 -112.00075 1119 ft 10 kts
2026-04-25 14:53 33.43886 -112.00085 1123 ft 13 kts 327°
2026-04-25 14:53 33.43903 -112.00184 1124 ft 12 kts 270°
2026-04-25 14:53 33.43904 -112.00285 1124 ft 12 kts 270°
2026-04-25 14:54 33.43901 -112.00385 1124 ft 12 kts 265°
2026-04-25 14:54 33.43860 -112.00462 1120 ft 13 kts 194°
2026-04-25 14:54 33.43769 -112.00466 1119 ft 13 kts 180°
2026-04-25 14:54 33.43680 -112.00467 1120 ft 13 kts 181°
2026-04-25 14:55 33.43594 -112.00469 1118 ft 12 kts 180°
2026-04-25 14:55 33.43505 -112.00468 1119 ft 14 kts 179°
2026-04-25 14:55 33.43402 -112.00467 1120 ft 15 kts 180°
2026-04-25 14:55 33.43297 -112.00467 1119 ft 16 kts 179°
2026-04-25 14:56 33.43215 -112.00532 1121 ft 16 kts 266°
2026-04-25 14:56 33.43214 -112.00663 1120 ft 15 kts 269°
2026-04-25 14:56 33.43214 -112.00792 1123 ft 16 kts 270°
2026-04-25 14:56 33.43214 -112.00945 1118 ft 20 kts 270°
2026-04-25 14:57 33.43214 -112.01107 1125 ft 19 kts 270°
2026-04-25 14:57 33.43214 -112.01265 1118 ft 19 kts 270°
2026-04-25 14:57 33.43214 -112.01418 1121 ft 19 kts 270°
2026-04-25 14:57 33.43213 -112.01576 1118 ft 19 kts 270°
2026-04-25 14:58 33.43215 -112.01729 1117 ft 18 kts 271°
2026-04-25 14:58 33.43216 -112.01877 1124 ft 17 kts 270°
2026-04-25 14:58 33.43215 -112.02018 1117 ft 17 kts 269°
2026-04-25 14:58 33.43215 -112.02156 1118 ft 16 kts 270°
2026-04-25 14:59 33.43214 -112.02289 1118 ft 16 kts 270°
2026-04-25 14:59 33.43214 -112.02427 1117 ft 18 kts 270°
2026-04-25 14:59 33.43215 -112.02585 1117 ft 19 kts 271°
2026-04-25 14:59 33.43159 -112.02699 1120 ft 15 kts 187°
2026-04-25 15:00 33.43107 -112.02625 1125 ft 0 kts 90°
2026-04-25 15:00 33.43107 -112.02556 1125 ft 35 kts 90°
2026-04-25 15:01 33.43104 -112.01895 1126 ft 121 kts 90°
2026-04-25 15:01 33.43108 -112.00618 1242 ft 182 kts 91°
2026-04-25 15:01 33.43111 -111.98972 1887 ft 199 kts 90°
2026-04-25 15:01 33.43178 -111.97185 2358 ft 229 kts 89°
2026-04-25 15:02 33.43268 -111.95188 2869 ft 245 kts 89°
2026-04-25 15:02 33.43338 -111.93133 3329 ft 250 kts 89°
2026-04-25 15:02 33.43398 -111.91017 3812 ft 254 kts 90°
2026-04-25 15:02 33.43427 -111.88897 4306 ft 259 kts 96°
2026-04-25 15:03 33.42821 -111.86889 4803 ft 261 kts 130°
2026-04-25 15:03 33.41484 -111.85445 5332 ft 258 kts 146°
2026-04-25 15:03 33.39857 -111.84556 5823 ft 260 kts 174°
2026-04-25 15:03 33.38083 -111.84777 6348 ft 257 kts 200°
2026-04-25 15:04 33.36545 -111.85790 6814 ft 257 kts 223°
2026-04-25 15:04 33.35577 -111.87561 7301 ft 257 kts 250°
2026-04-25 15:04 33.35278 -111.89667 7788 ft 259 kts 269°
2026-04-25 15:04 33.35437 -111.91814 8270 ft 259 kts 274°
2026-04-25 15:05 33.35661 -111.93949 8762 ft 259 kts 274°
2026-04-25 15:05 33.35882 -111.96109 9302 ft 266 kts 274°
2026-04-25 15:05 33.36099 -111.98331 9818 ft 269 kts 273°
2026-04-25 15:06 33.35593 -112.02797 10417 ft 298 kts 240°
2026-04-25 15:06 33.34410 -112.04971 10614 ft 324 kts 234°
2026-04-25 15:06 33.33023 -112.07221 10791 ft 348 kts 233°
2026-04-25 15:06 33.31533 -112.09571 11257 ft 359 kts 233°
2026-04-25 15:07 33.30021 -112.11958 11995 ft 362 kts 234°
2026-04-25 15:07 33.28515 -112.14355 12734 ft 364 kts 234°
2026-04-25 15:07 33.26991 -112.16799 13407 ft 369 kts 234°
2026-04-25 15:07 33.25461 -112.19266 14087 ft 370 kts 235°
2026-04-25 15:08 33.23927 -112.21748 14735 ft 372 kts 235°
2026-04-25 15:08 33.22385 -112.24247 15354 ft 375 kts 235°
2026-04-25 15:08 33.20848 -112.26741 15952 ft 378 kts 236°
2026-04-25 15:08 33.19265 -112.29308 16565 ft 381 kts 236°
2026-04-25 15:09 33.17688 -112.31862 17187 ft 383 kts 236°
2026-04-25 15:09 33.16102 -112.34430 17764 ft 386 kts 235°
2026-04-25 15:09 33.12912 -112.39588 18789 ft 391 kts 236°
2026-04-25 15:10 33.11294 -112.42202 19284 ft 393 kts 236°
2026-04-25 15:10 33.09668 -112.44828 19774 ft 395 kts 236°
2026-04-25 15:10 33.06384 -112.50126 20678 ft 401 kts 236°
2026-04-25 15:11 33.04718 -112.52810 21143 ft 403 kts 236°
2026-04-25 15:11 33.03046 -112.55500 21653 ft 405 kts 236°
2026-04-25 15:11 33.01367 -112.58203 22108 ft 407 kts 236°
2026-04-25 15:12 32.97978 -112.63650 22983 ft 411 kts 236°
2026-04-25 15:12 32.96349 -112.66455 23372 ft 412 kts 243°
2026-04-25 15:12 32.95304 -112.69572 23708 ft 412 kts 256°
2026-04-25 15:12 32.95095 -112.70703 23831 ft 413 kts 259°
2026-04-25 15:13 32.94350 -112.76311 24448 ft 413 kts 261°
2026-04-25 15:13 32.93494 -112.83116 25010 ft 419 kts 261°
2026-04-25 15:13 32.93050 -112.86544 25344 ft 419 kts 261°
2026-04-25 15:14 32.92597 -112.89970 25707 ft 419 kts 260°
2026-04-25 15:14 32.92137 -112.93397 26121 ft 417 kts 260°
2026-04-25 15:14 32.91677 -112.96796 26616 ft 414 kts 260°
2026-04-25 15:14 32.91220 -113.00155 27139 ft 411 kts 260°
2026-04-25 15:15 32.90761 -113.03508 27608 ft 409 kts 260°
2026-04-25 15:15 32.90305 -113.06840 27828 ft 410 kts 260°
2026-04-25 15:15 32.89845 -113.10190 27841 ft 410 kts 260°
2026-04-25 15:15 32.89385 -113.13534 27841 ft 409 kts 260°
2026-04-25 15:16 32.89081 -113.15744 27845 ft 408 kts 260°
2026-04-25 15:16 32.88622 -113.19072 27847 ft 408 kts 260°
2026-04-25 15:16 32.87699 -113.25743 27841 ft 408 kts 260°
2026-04-25 15:17 32.86774 -113.32401 27841 ft 408 kts 260°
2026-04-25 15:17 32.86310 -113.35734 27841 ft 408 kts 260°
2026-04-25 15:17 32.85845 -113.39067 27844 ft 408 kts 260°
2026-04-25 15:18 32.85380 -113.42394 27843 ft 408 kts 260°
2026-04-25 15:18 32.84453 -113.49003 27842 ft 408 kts 260°
2026-04-25 15:18 32.83985 -113.52330 27844 ft 408 kts 260°
2026-04-25 15:19 32.83516 -113.55658 27844 ft 408 kts 260°
2026-04-25 15:19 32.83198 -113.57909 27841 ft 408 kts 260°
2026-04-25 15:19 32.82576 -113.62316 27845 ft 408 kts 260°
2026-04-25 15:19 32.82103 -113.65650 27844 ft 409 kts 259°
2026-04-25 15:20 32.81630 -113.68982 27845 ft 409 kts 259°
2026-04-25 15:20 32.81157 -113.72307 27843 ft 409 kts 259°
2026-04-25 15:20 32.80682 -113.75647 27850 ft 409 kts 259°
2026-04-25 15:20 32.80207 -113.78987 27847 ft 409 kts 259°
2026-04-25 15:21 32.79730 -113.82329 27845 ft 409 kts 259°
2026-04-25 15:21 32.79254 -113.85662 27847 ft 409 kts 259°
2026-04-25 15:21 32.78778 -113.88997 27852 ft 409 kts 259°
2026-04-25 15:21 32.78300 -113.92330 27851 ft 409 kts 259°
2026-04-25 15:22 32.77821 -113.95664 27853 ft 409 kts 259°
2026-04-25 15:22 32.77462 -113.98982 27845 ft 410 kts 265°
2026-04-25 15:22 32.77428 -114.02374 27859 ft 411 kts 268°
2026-04-25 15:22 32.77458 -114.05774 27853 ft 411 kts 268°
2026-04-25 15:23 32.77523 -114.09171 27858 ft 411 kts 270°
2026-04-25 15:23 32.77662 -114.12566 27852 ft 411 kts 270°
2026-04-25 15:23 32.77823 -114.15959 27859 ft 411 kts 270°
2026-04-25 15:23 32.77980 -114.19360 27857 ft 411 kts 270°
2026-04-25 15:24 32.78126 -114.22753 27852 ft 411 kts 270°
2026-04-25 15:24 32.78264 -114.26136 27863 ft 410 kts 270°
2026-04-25 15:24 32.78399 -114.29521 27863 ft 410 kts 270°
2026-04-25 15:24 32.78488 -114.31765 27872 ft 410 kts 270°
2026-04-25 15:25 32.78657 -114.36300 27866 ft 411 kts 270°
2026-04-25 15:25 32.78961 -114.39684 27879 ft 416 kts 279°
2026-04-25 15:25 32.79859 -114.42921 27895 ft 419 kts 284°
2026-04-25 15:25 32.80812 -114.46198 27882 ft 418 kts 284°
2026-04-25 15:26 32.81736 -114.49476 27884 ft 418 kts 283°
2026-04-25 15:26 32.82645 -114.52758 27874 ft 418 kts 283°
2026-04-25 15:26 32.83546 -114.56043 27871 ft 418 kts 283°
2026-04-25 15:26 32.84445 -114.59329 27868 ft 418 kts 283°
2026-04-25 15:27 32.85343 -114.62610 27868 ft 417 kts 283°
2026-04-25 15:27 32.86241 -114.65891 27872 ft 417 kts 283°
2026-04-25 15:27 32.87882 -114.72488 27856 ft 412 kts 274°
2026-04-25 15:28 32.87968 -114.75863 27879 ft 407 kts 265°
2026-04-25 15:28 32.87860 -114.79229 27867 ft 407 kts 265°
2026-04-25 15:28 32.87752 -114.82595 27864 ft 407 kts 265°
2026-04-25 15:28 32.87656 -114.85965 27862 ft 408 kts 266°
2026-04-25 15:29 32.87569 -114.89339 27857 ft 408 kts 266°
2026-04-25 15:29 32.87487 -114.92728 27851 ft 409 kts 266°
2026-04-25 15:29 32.87410 -114.96063 27848 ft 409 kts 266°
2026-04-25 15:29 32.87332 -114.99445 27859 ft 408 kts 266°
2026-04-25 15:30 32.87258 -115.02737 27822 ft 388 kts 266°
2026-04-25 15:30 32.87187 -115.05908 27394 ft 380 kts 265°
2026-04-25 15:30 32.87113 -115.09020 26949 ft 373 kts 265°
2026-04-25 15:30 32.87039 -115.12081 26496 ft 366 kts 265°
2026-04-25 15:31 32.86966 -115.15077 26055 ft 360 kts 265°
2026-04-25 15:31 32.86893 -115.18046 25618 ft 355 kts 265°
2026-04-25 15:31 32.86820 -115.20962 25189 ft 350 kts 265°
2026-04-25 15:31 32.86747 -115.23840 24767 ft 346 kts 265°
2026-04-25 15:32 32.86676 -115.26676 24351 ft 342 kts 265°
2026-04-25 15:32 32.86604 -115.29496 23938 ft 339 kts 265°
2026-04-25 15:32 32.86533 -115.32282 23521 ft 335 kts 265°
2026-04-25 15:33 32.86078 -115.37727 22587 ft 327 kts 257°
2026-04-25 15:33 32.85660 -115.40386 22120 ft 325 kts 257°
2026-04-25 15:33 32.85258 -115.43015 21658 ft 323 kts 258°
2026-04-25 15:33 32.84875 -115.45643 21206 ft 321 kts 258°
2026-04-25 15:34 32.84505 -115.48253 20762 ft 319 kts 258°
2026-04-25 15:34 32.84160 -115.50556 20370 ft 317 kts 257°
2026-04-25 15:34 32.83749 -115.53094 19944 ft 316 kts 257°
2026-04-25 15:34 32.83463 -115.54824 19651 ft 315 kts 257°
2026-04-25 15:35 32.82483 -115.60740 18672 ft 312 kts 257°
2026-04-25 15:35 32.82067 -115.63264 18299 ft 311 kts 257°
2026-04-25 15:35 32.81654 -115.65781 17851 ft 310 kts 257°
2026-04-25 15:36 32.80826 -115.70815 16919 ft 308 kts 257°
2026-04-25 15:36 32.80414 -115.73318 16465 ft 307 kts 257°
2026-04-25 15:36 32.80005 -115.75799 16013 ft 306 kts 257°
2026-04-25 15:37 32.79596 -115.78280 15571 ft 305 kts 257°
2026-04-25 15:37 32.79189 -115.80747 15137 ft 304 kts 257°
2026-04-25 15:37 32.78782 -115.83207 14697 ft 303 kts 257°
2026-04-25 15:37 32.78399 -115.85662 14281 ft 302 kts 260°
2026-04-25 15:38 32.78172 -115.88137 13867 ft 301 kts 263°
2026-04-25 15:38 32.78008 -115.90579 13431 ft 300 kts 264°
2026-04-25 15:38 32.77847 -115.93078 12958 ft 299 kts 264°
2026-04-25 15:38 32.77683 -115.95546 12491 ft 299 kts 264°
2026-04-25 15:39 32.77516 -115.97968 12053 ft 298 kts 264°
2026-04-25 15:39 32.77343 -116.00385 11939 ft 287 kts 263°
2026-04-25 15:39 32.77175 -116.02695 11906 ft 274 kts 263°
2026-04-25 15:39 32.77012 -116.04897 11896 ft 261 kts 263°
2026-04-25 15:40 32.76857 -116.06981 11922 ft 243 kts 263°
2026-04-25 15:40 32.76808 -116.07644 11917 ft 237 kts 263°
2026-04-25 15:40 32.76577 -116.10701 11916 ft 214 kts 263°
2026-04-25 15:40 32.76444 -116.12455 11914 ft 213 kts 263°
2026-04-25 15:41 32.76309 -116.14210 11938 ft 214 kts 263°
2026-04-25 15:41 32.76174 -116.15969 11936 ft 214 kts 263°
2026-04-25 15:41 32.76039 -116.17736 11932 ft 215 kts 263°
2026-04-25 15:41 32.75903 -116.19504 11934 ft 215 kts 263°
2026-04-25 15:42 32.75768 -116.21274 11942 ft 216 kts 263°
2026-04-25 15:42 32.75631 -116.23054 11927 ft 215 kts 263°
2026-04-25 15:42 32.75496 -116.24809 11929 ft 213 kts 263°
2026-04-25 15:42 32.75360 -116.26565 11821 ft 215 kts 262°
2026-04-25 15:43 32.75222 -116.28351 11437 ft 216 kts 262°
2026-04-25 15:43 32.75087 -116.30104 11095 ft 211 kts 262°
2026-04-25 15:43 32.74953 -116.31833 10721 ft 209 kts 262°
2026-04-25 15:43 32.74821 -116.33536 10362 ft 205 kts 262°
2026-04-25 15:44 32.74691 -116.35208 10048 ft 201 kts 262°
2026-04-25 15:44 32.74565 -116.36827 9994 ft 199 kts 262°
2026-04-25 15:44 32.74436 -116.38488 9980 ft 201 kts 262°
2026-04-25 15:44 32.74308 -116.40124 9971 ft 201 kts 262°
2026-04-25 15:45 32.74181 -116.41758 9954 ft 196 kts 262°
2026-04-25 15:45 32.74055 -116.43370 9960 ft 196 kts 262°
2026-04-25 15:45 32.73929 -116.44989 9951 ft 196 kts 262°
2026-04-25 15:45 32.73886 -116.45530 9937 ft 192 kts 262°
2026-04-25 15:46 32.73689 -116.48046 9913 ft 179 kts 262°
2026-04-25 15:46 32.73571 -116.49530 9521 ft 182 kts 262°
2026-04-25 15:46 32.73440 -116.51022 9159 ft 182 kts 262°
2026-04-25 15:46 32.73297 -116.52508 8835 ft 179 kts 262°
2026-04-25 15:47 32.73156 -116.53959 8588 ft 176 kts 262°
2026-04-25 15:47 32.73017 -116.55398 8307 ft 174 kts 263°
2026-04-25 15:47 32.72880 -116.56825 8074 ft 173 kts 263°
2026-04-25 15:47 32.72740 -116.58263 7824 ft 178 kts 263°
2026-04-25 15:48 32.72596 -116.59744 7608 ft 182 kts 263°
2026-04-25 15:48 32.72451 -116.61241 7344 ft 181 kts 264°
2026-04-25 15:48 32.72309 -116.62705 7112 ft 181 kts 264°
2026-04-25 15:48 32.72164 -116.64193 6907 ft 177 kts 264°
2026-04-25 15:49 32.72025 -116.65617 6752 ft 174 kts 265°
2026-04-25 15:49 32.71907 -116.67082 6556 ft 178 kts 265°
2026-04-25 15:49 32.71793 -116.68530 6419 ft 179 kts 265°
2026-04-25 15:49 32.71679 -116.70003 6264 ft 180 kts 265°
2026-04-25 15:50 32.71562 -116.71509 6151 ft 188 kts 265°
2026-04-25 15:50 32.71441 -116.73041 6092 ft 184 kts 265°
2026-04-25 15:50 32.71324 -116.74540 6038 ft 183 kts 265°
2026-04-25 15:50 32.71205 -116.76048 5989 ft 183 kts 265°
2026-04-25 15:51 32.71088 -116.77539 5994 ft 181 kts 265°
2026-04-25 15:51 32.71050 -116.78024 5990 ft 181 kts 265°
2026-04-25 15:51 32.70852 -116.80518 5963 ft 181 kts 265°
2026-04-25 15:51 32.70705 -116.82019 5761 ft 183 kts 257°
2026-04-25 15:52 32.70302 -116.83444 5602 ft 184 kts 250°
2026-04-25 15:52 32.69841 -116.84868 5420 ft 184 kts 250°
2026-04-25 15:52 32.69387 -116.86281 5234 ft 184 kts 249°
2026-04-25 15:52 32.68939 -116.87678 5011 ft 177 kts 247°
2026-04-25 15:53 32.68474 -116.88983 4776 ft 168 kts 250°
2026-04-25 15:53 32.68111 -116.90252 4518 ft 161 kts 251°
2026-04-25 15:53 32.67751 -116.91515 4244 ft 158 kts 250°
2026-04-25 15:53 32.67395 -116.92740 3991 ft 157 kts 250°
2026-04-25 15:54 32.67258 -116.93995 3707 ft 158 kts 283°
2026-04-25 15:54 32.67596 -116.95273 3439 ft 164 kts 284°
2026-04-25 15:54 32.67907 -116.96540 3084 ft 161 kts 284°
2026-04-25 15:54 32.68218 -116.97827 2717 ft 156 kts 283°
2026-04-25 15:55 32.68509 -116.99025 2698 ft 151 kts 283°
2026-04-25 15:55 32.68796 -117.00203 2697 ft 151 kts 282°
2026-04-25 15:55 32.69090 -117.01417 2544 ft 153 kts 282°
2026-04-25 15:55 32.69385 -117.02627 2347 ft 153 kts 282°
2026-04-25 15:56 32.69678 -117.03824 2097 ft 150 kts 283°
2026-04-25 15:56 32.69968 -117.05012 2022 ft 148 kts 283°
2026-04-25 15:56 32.70247 -117.06162 1976 ft 142 kts 282°
2026-04-25 15:56 32.70525 -117.07301 1854 ft 146 kts 282°
2026-04-25 15:57 32.70806 -117.08454 1666 ft 144 kts 282°
2026-04-25 15:57 32.71080 -117.09583 1472 ft 141 kts 281°
2026-04-25 15:57 32.71355 -117.10705 1324 ft 142 kts 282°
2026-04-25 15:57 32.71630 -117.11861 1179 ft 147 kts 282°
2026-04-25 15:58 32.71917 -117.13012 982 ft 144 kts 285°
2026-04-25 15:58 32.72203 -117.14158 813 ft 145 kts 284°
2026-04-25 15:58 32.72470 -117.15302 572 ft 142 kts 285°
2026-04-25 15:58 32.72749 -117.16419 348 ft 139 kts 284°
2026-04-25 15:59 32.72999 -117.17506 103 ft 137 kts 284°
2026-04-25 15:59 32.73249 -117.18529 25 ft 116 kts 284°
2026-04-25 15:59 32.73415 -117.19216 21 ft 60 kts 286°
2026-04-25 15:59 32.73434 -117.19464 23 ft 23 kts 250°
2026-04-25 16:00 32.73424 -117.19496 24 ft 0 kts 249°
2026-04-25 16:00 32.73424 -117.19497 24 ft 0 kts 249°
2026-04-25 16:00 32.73420 -117.19508 22 ft 1 kts 249°
2026-04-25 16:00 32.73416 -117.19520 25 ft 2 kts 249°
2026-04-25 16:01 32.73406 -117.19573 22 ft 12 kts 266°
2026-04-25 16:01 32.73423 -117.19675 23 ft 13 kts 286°
2026-04-25 16:01 32.73448 -117.19774 22 ft 12 kts 287°
2026-04-25 16:01 32.73472 -117.19870 22 ft 12 kts 286°
2026-04-25 16:02 32.73487 -117.19933 23 ft 12 kts 286°
2026-04-25 16:02 32.73511 -117.20034 23 ft 14 kts 285°
2026-04-25 16:02 32.73542 -117.20179 22 ft 13 kts 268°
2026-04-25 16:02 32.73508 -117.20237 22 ft 13 kts 210°
2026-04-25 16:03 32.73425 -117.20266 23 ft 12 kts 194°
2026-04-25 16:03 32.73344 -117.20273 22 ft 12 kts 165°
2026-04-25 16:03 32.73300 -117.20243 22 ft 5 kts 118°
2026-04-25 16:03 32.73295 -117.20201 22 ft 5 kts 96°
2026-04-25 16:04 32.73292 -117.20171 22 ft 3 kts 97°
2026-04-25 16:04 32.73291 -117.20167 22 ft 0 kts 97°